When you browse on this site, cookies collect data to enhance your experience and personalize the content and advertising you see.
Visit our Privacy Policy to learn more. By continuing to use the site, you agree to this use of cookies and data.
  • In Schweiz
  • Länderverzeichnis
  • Für 7 Tage
  • Wassertemperatur
  • Wetterkarte
  • Widgets
  • user-avatar
    Anmelden

    Stündliche Wetter Brühl

    Heute, 6 Juni, Samstag

    Zeit Temperatur Niederschläge Wind Luftdruck Luftfeuchtigkeit
    00:00 +8°C° 0 mm 3 m/S 743 mmHg 84%
    01:00 +8°C° 0 mm 3 m/S 743 mmHg 85%
    02:00 +7°C° 0 mm 3 m/S 742 mmHg 86%
    03:00 +6°C° 0 mm 4 m/S 742 mmHg 87%
    04:00 +7°C° 0 mm 4 m/S 743 mmHg 83%
    05:00 +10°C° 0 mm 4 m/S 743 mmHg 79%
    06:00 +11°C° 0 mm 4 m/S 743 mmHg 75%
    07:00 +10°C° 0.2 mm 5 m/S 743 mmHg 73%
    08:00 +12°C° 0.2 mm 5 m/S 743 mmHg 71%
    09:00 +13°C° 0.2 mm 6 m/S 743 mmHg 69%
    10:00 +14°C° 0.2 mm 6 m/S 743 mmHg 61%
    11:00 +15°C° 0.2 mm 6 m/S 744 mmHg 53%
    12:00 +17°C° 0.2 mm 6 m/S 744 mmHg 45%
    13:00 +17°C° 0 mm 6 m/S 744 mmHg 45%
    14:00 +17°C° 0 mm 6 m/S 744 mmHg 45%
    15:00 +17°C° 0 mm 6 m/S 744 mmHg 46%
    16:00 +16°C° 0.1 mm 5 m/S 744 mmHg 51%
    17:00 +15°C° 0.1 mm 4 m/S 744 mmHg 57%
    18:00 +15°C° 0.1 mm 4 m/S 745 mmHg 63%
    19:00 +13°C° 0 mm 3 m/S 745 mmHg 66%
    20:00 +11°C° 0 mm 3 m/S 746 mmHg 69%
    21:00 +10°C° 0 mm 3 m/S 746 mmHg 72%
    22:00 +9°C° 0 mm 3 m/S 746 mmHg 72%
    23:00 +9°C° 0 mm 3 m/S 746 mmHg 72%

    Morgen, 7 Juni, Sonntag

    Zeit Temperatur Niederschläge Wind Luftdruck Luftfeuchtigkeit
    00:00 +7°C° 0 mm 4 m/S 746 mmHg 73%
    01:00 +7°C° 0 mm 4 m/S 746 mmHg 73%
    02:00 +7°C° 0 mm 4 m/S 746 mmHg 74%
    03:00 +7°C° 0 mm 4 m/S 746 mmHg 74%
    04:00 +8°C° 0 mm 4 m/S 747 mmHg 75%
    05:00 +9°C° 0 mm 5 m/S 747 mmHg 75%
    06:00 +10°C° 0 mm 5 m/S 747 mmHg 75%
    07:00 +12°C° 0 mm 5 m/S 747 mmHg 72%
    08:00 +13°C° 0 mm 5 m/S 748 mmHg 68%
    09:00 +14°C° 0 mm 5 m/S 748 mmHg 64%
    10:00 +15°C° 0 mm 5 m/S 748 mmHg 59%
    11:00 +16°C° 0 mm 5 m/S 749 mmHg 54%
    12:00 +19°C° 0 mm 5 m/S 749 mmHg 49%
    13:00 +19°C° 0 mm 4 m/S 749 mmHg 49%
    14:00 +19°C° 0 mm 4 m/S 749 mmHg 49%
    15:00 +19°C° 0 mm 4 m/S 749 mmHg 49%
    16:00 +19°C° 0 mm 3 m/S 750 mmHg 53%
    17:00 +18°C° 0 mm 2 m/S 750 mmHg 58%
    18:00 +18°C° 0 mm 2 m/S 750 mmHg 62%
    19:00 +16°C° 0 mm 1 m/S 751 mmHg 67%
    20:00 +14°C° 0 mm 1 m/S 751 mmHg 72%
    21:00 +12°C° 0 mm 1 m/S 752 mmHg 77%
    22:00 +12°C° 0 mm 1 m/S 752 mmHg 79%
    23:00 +11°C° 0 mm 1 m/S 752 mmHg 81%

    übermorgen, 8 Juni, Montag

    Zeit Temperatur Niederschläge Wind Luftdruck Luftfeuchtigkeit
    00:00 +11°C° 0 mm 1 m/S 752 mmHg 82%
    01:00 +10°C° 0 mm 1 m/S 752 mmHg 83%
    02:00 +10°C° 0 mm 1 m/S 752 mmHg 83%
    03:00 +10°C° 0 mm 1 m/S 752 mmHg 84%
    04:00 +10°C° 0 mm 0 m/S 752 mmHg 79%
    05:00 +12°C° 0 mm 0 m/S 753 mmHg 75%
    06:00 +13°C° 0 mm 0 m/S 753 mmHg 71%
    07:00 +16°C° 0 mm 1 m/S 753 mmHg 64%
    08:00 +18°C° 0 mm 1 m/S 753 mmHg 58%
    09:00 +20°C° 0 mm 1 m/S 754 mmHg 52%
    10:00 +20°C° 0 mm 2 m/S 754 mmHg 51%
    11:00 +20°C° 0 mm 2 m/S 753 mmHg 49%
    12:00 +21°C° 0 mm 2 m/S 753 mmHg 48%
    13:00 +21°C° 0.2 mm 2 m/S 753 mmHg 51%
    14:00 +21°C° 0.2 mm 3 m/S 753 mmHg 53%
    15:00 +21°C° 0.2 mm 3 m/S 753 mmHg 56%
    16:00 +20°C° 0.3 mm 3 m/S 753 mmHg 61%
    17:00 +19°C° 0.3 mm 3 m/S 753 mmHg 66%
    18:00 +18°C° 0.3 mm 3 m/S 754 mmHg 71%
    19:00 +17°C° 0.1 mm 3 m/S 754 mmHg 75%
    20:00 +15°C° 0.1 mm 2 m/S 755 mmHg 80%
    21:00 +14°C° 0.1 mm 2 m/S 755 mmHg 84%
    22:00 +13°C° 0 mm 2 m/S 756 mmHg 85%
    23:00 +13°C° 0 mm 2 m/S 756 mmHg 87%

    9 Juni, Dienstag

    Zeit Temperatur Niederschläge Wind Luftdruck Luftfeuchtigkeit
    00:00 +12°C° 0 mm 2 m/S 756 mmHg 88%
    01:00 +12°C° 0 mm 2 m/S 756 mmHg 89%
    02:00 +10°C° 0 mm 2 m/S 756 mmHg 90%
    03:00 +11°C° 0 mm 1 m/S 756 mmHg 92%
    04:00 +10°C° 0 mm 2 m/S 756 mmHg 89%
    05:00 +12°C° 0 mm 2 m/S 756 mmHg 87%
    06:00 +13°C° 0 mm 2 m/S 756 mmHg 85%
    07:00 +14°C° 0 mm 2 m/S 757 mmHg 78%
    08:00 +16°C° 0 mm 3 m/S 757 mmHg 72%
    09:00 +17°C° 0 mm 3 m/S 757 mmHg 65%
    10:00 +18°C° 0 mm 3 m/S 757 mmHg 61%
    11:00 +19°C° 0 mm 3 m/S 756 mmHg 58%
    12:00 +20°C° 0 mm 3 m/S 756 mmHg 54%
    13:00 +20°C° 0 mm 4 m/S 756 mmHg 53%
    14:00 +20°C° 0 mm 4 m/S 756 mmHg 52%
    15:00 +21°C° 0 mm 4 m/S 756 mmHg 51%
    16:00 +20°C° 0 mm 4 m/S 756 mmHg 55%
    17:00 +19°C° 0 mm 4 m/S 756 mmHg 58%
    18:00 +18°C° 0 mm 4 m/S 756 mmHg 61%
    19:00 +17°C° 0 mm 3 m/S 757 mmHg 67%
    20:00 +14°C° 0 mm 3 m/S 757 mmHg 72%
    21:00 +13°C° 0 mm 2 m/S 758 mmHg 77%
    22:00 +13°C° 0 mm 2 m/S 758 mmHg 80%
    23:00 +12°C° 0 mm 2 m/S 758 mmHg 82%

    10 Juni, Mittwoch

    Zeit Temperatur Niederschläge Wind Luftdruck Luftfeuchtigkeit
    00:00 +10°C° 0 mm 2 m/S 758 mmHg 84%
    01:00 +10°C° 0 mm 2 m/S 758 mmHg 85%
    02:00 +10°C° 0 mm 2 m/S 758 mmHg 86%
    03:00 +9°C° 0 mm 2 m/S 758 mmHg 87%
    04:00 +10°C° 0 mm 2 m/S 758 mmHg 84%
    05:00 +12°C° 0 mm 2 m/S 758 mmHg 80%
    06:00 +13°C° 0 mm 2 m/S 758 mmHg 76%
    07:00 +15°C° 0 mm 2 m/S 758 mmHg 70%
    08:00 +17°C° 0 mm 3 m/S 758 mmHg 65%
    09:00 +18°C° 0 mm 3 m/S 758 mmHg 59%
    10:00 +20°C° 0 mm 3 m/S 758 mmHg 56%
    11:00 +21°C° 0 mm 4 m/S 758 mmHg 53%
    12:00 +22°C° 0 mm 4 m/S 758 mmHg 50%
    13:00 +22°C° 0 mm 4 m/S 758 mmHg 51%
    14:00 +22°C° 0 mm 4 m/S 757 mmHg 51%
    15:00 +22°C° 0 mm 4 m/S 757 mmHg 51%
    16:00 +21°C° 0 mm 4 m/S 758 mmHg 55%
    17:00 +21°C° 0 mm 4 m/S 758 mmHg 58%
    18:00 +20°C° 0 mm 3 m/S 758 mmHg 61%
    19:00 +18°C° 0 mm 3 m/S 758 mmHg 66%
    20:00 +16°C° 0 mm 3 m/S 759 mmHg 72%
    21:00 +15°C° 0 mm 2 m/S 759 mmHg 77%
    22:00 +14°C° 0 mm 2 m/S 759 mmHg 81%
    23:00 +13°C° 0 mm 2 m/S 759 mmHg 84%

    11 Juni, Donnerstag

    Zeit Temperatur Niederschläge Wind Luftdruck Luftfeuchtigkeit
    00:00 +12°C° 0 mm 2 m/S 759 mmHg 87%
    01:00 +12°C° 0 mm 2 m/S 759 mmHg 88%
    02:00 +11°C° 0 mm 1 m/S 759 mmHg 89%
    03:00 +11°C° 0 mm 1 m/S 759 mmHg 90%
    04:00 +12°C° 0 mm 1 m/S 759 mmHg 87%
    05:00 +13°C° 0 mm 2 m/S 759 mmHg 84%
    06:00 +14°C° 0 mm 2 m/S 760 mmHg 80%
    07:00 +15°C° 0 mm 2 m/S 759 mmHg 73%
    08:00 +17°C° 0 mm 2 m/S 759 mmHg 65%
    09:00 +19°C° 0 mm 3 m/S 759 mmHg 57%
    10:00 +20°C° 0 mm 3 m/S 758 mmHg 53%
    11:00 +21°C° 0 mm 3 m/S 758 mmHg 48%
    12:00 +22°C° 0 mm 3 m/S 758 mmHg 43%
    13:00 +24°C° 0 mm 3 m/S 757 mmHg 44%
    14:00 +23°C° 0 mm 4 m/S 757 mmHg 44%
    15:00 +23°C° 0 mm 4 m/S 756 mmHg 44%
    16:00 +22°C° 0 mm 4 m/S 756 mmHg 49%
    17:00 +21°C° 0 mm 4 m/S 756 mmHg 54%
    18:00 +20°C° 0 mm 4 m/S 756 mmHg 58%
    19:00 +19°C° 0 mm 3 m/S 756 mmHg 64%
    20:00 +17°C° 0 mm 3 m/S 756 mmHg 70%
    21:00 +14°C° 0 mm 3 m/S 757 mmHg 75%
    22:00 +15°C° 0 mm 2 m/S 756 mmHg 80%
    23:00 +14°C° 0 mm 2 m/S 756 mmHg 84%
    Mehr zeigen